Regional Weather Roundup
Issued by NWS

Home | Current Version | Previous Version | Text Only | Print | Product List | Glossary Off
Versions: 1 2 3 4 5 6 7 8 9 10 11 12 13 14 15 16 17 18 19 20 21 22 23 24 25 26 27 28 29 30 31 32 33 34 35 36 37 38 39 40 41 42 43 44 45 46 47 48 49 50

000
ASUS43 KLSX 180307
RWRMO

WEATHER SUMMARY FOR MISSOURI
NATIONAL WEATHER SERVICE SPRINGFIELD MO
1000 PM CDT THU APR 17 2014

NOTE: "FAIR" INDICATES FEW OR NO CLOUDS BELOW 12,000 FEET WITH NO
       SIGNIFICANT WEATHER AND/OR OBSTRUCTIONS TO VISIBILITY.
       CURRENT SKY AND/OR WEATHER CONDITIONS ARE NOT AVAILABLE FOR
       CHILLICOTHE AND FARMINGTON.

MOZ001>031-035>038-043-044-053-054-180400-
...NORTHERN AND WESTERN MISSOURI...

CITY           SKY/WX    TMP DP  RH WIND       PRES   REMARKS
KANSAS CTY INT CLEAR     43  31  62 S6        30.28S
KANSAS C DTWN  CLEAR     46  34  62 S5        30.29R
LEE`S SUMMIT   CLOUDY    43  34  70 CALM      30.29S
ST JOSEPH      CLEAR     44  33  65 S5        30.29R
CHILLICOTHE      N/A     39  34  82 CALM      30.30S
KIRKSVILLE     CLEAR     40  33  76 W5        30.29S

$$
MOZ066>068-077>081-088>096-101>105-180400-
...SOUTHWEST MISSOURI...

CITY           SKY/WX    TMP DP  RH WIND       PRES   REMARKS
SPRINGFIELD    MOCLDY    51  40  65 N8        30.24R
JOPLIN         CLOUDY    48  42  80 N7        30.25S

$$
MOZ032>034-039>042-045>050-055>058-069>072-180400-
...CENTRAL MISSOURI...

CITY           SKY/WX    TMP DP  RH WIND       PRES   REMARKS
COLUMBIA       CLOUDY    47  40  76 N6        30.28R
JEFFERSON CITY CLOUDY    49  38  65 SE5       30.29R
ROLLA          CLOUDY    50  40  68 N9        30.25R
SEDALIA        CLOUDY    45  40  82 SW3       30.28R
WHITEMAN AFB   CLEAR     41  35  80 N6        30.28R
OSAGE BEACH    CLOUDY    46  36  66 CALM      30.29S

$$
MOZ051-052-059>065-180400-
...EAST CENTRAL MISSOURI...

CITY           SKY/WX    TMP DP  RH WIND       PRES   REMARKS
ST LOUIS INTL  MOCLDY    55  40  56 N6        30.27R
SPIRIT OF STL  MOCLDY    52  40  63 N3        30.27R
ST CHARLES     CLOUDY    53  39  59 N7        30.26R

$$
MOZ072>076-082>087-097>100-106>115-180400-
...SOUTH CENTRAL AND SOUTHEAST MISSOURI...

CITY           SKY/WX    TMP DP  RH WIND       PRES   REMARKS
CAPE GIRARDEAU MOCLDY    51  46  83 CALM      30.25R
FARMINGTON     CLEAR     55  36  47 CALM      30.27R
POPLAR BLUFF   PTCLDY    59  42  53 SE3       30.23S
WEST PLAINS    MOCLDY    56  36  47 SE6       30.24R

$$



USA.gov is the U.S. government's official web portal to all federal, state and local government web resources and services.